| time (UTC) | temp F | wind direction | speed knots | gust knots | rain 1hr in | rain 24hr in | rain mn in | humidity % | barometer mb |
| 20260504015335 | 63 | 213 | 4.3 | 8.7 | 0.00 | 0.02 | 0.02 | 54 | 1005.6 |
| 20260504014850 | 63 | 199 | 5.2 | 8.7 | 0.00 | 0.02 | 0.02 | 54 | 1005.5 |
| 20260504014516 | 63 | 225 | 4.3 | 8.7 | 0.00 | 0.02 | 0.02 | 54 | 1005.5 |
| 20260504014335 | 63 | 202 | 3.5 | 7.8 | 0.00 | 0.02 | 0.02 | 54 | 1005.6 |
| 20260504013817 | 64 | 227 | 3.5 | 10.4 | 0.00 | 0.02 | 0.02 | 53 | 1005.5 |
| 20260504013347 | 64 | 190 | 5.2 | 9.6 | 0.00 | 0.02 | 0.02 | 53 | 1005.5 |
| 20260504013002 | 63 | 227 | 4.3 | 9.6 | 0.00 | 0.02 | 0.02 | 53 | 1005.4 |
| 20260504012827 | 64 | 201 | 5.2 | 8.7 | 0.00 | 0.02 | 0.02 | 53 | 1005.5 |
| 20260504012317 | 64 | 203 | 4.3 | 9.6 | 0.00 | 0.02 | 0.02 | 53 | 1005.4 |
| 20260504011851 | 64 | 237 | 5.2 | 9.6 | 0.00 | 0.02 | 0.02 | 52 | 1005.4 |
| 20260504011558 | 64 | 225 | 4.3 | 8.7 | 0.00 | 0.02 | 0.02 | 52 | 1005.4 |
| 20260504011316 | 64 | 192 | 4.3 | 10.4 | 0.00 | 0.02 | 0.02 | 52 | 1005.3 |
| 20260504010828 | 65 | 207 | 5.2 | 10.4 | 0.00 | 0.02 | 0.02 | 52 | 1005.3 |
| 20260504010314 | 65 | 207 | 6.1 | 10.4 | 0.00 | 0.02 | 0.02 | 51 | 1005.3 |
| 20260504010014 | 64 | 194 | 3.5 | 13.0 | 0.00 | 0.02 | 0.02 | 51 | 1005.1 |
| 20260504005825 | 65 | 242 | 4.3 | 13.0 | 0.00 | 0.02 | 0.02 | 51 | 1005.2 |
| 20260504005335 | 65 | 236 | 7.0 | 13.0 | 0.00 | 0.02 | 0.02 | 50 | 1005.2 |
| 20260504004837 | 65 | 223 | 4.3 | 10.4 | 0.00 | 0.02 | 0.02 | 50 | 1005.2 |
| 20260504004530 | 65 | 219 | 6.1 | 10.4 | 0.00 | 0.02 | 0.02 | 49 | 1005.2 |
| 20260504004356 | 66 | 202 | 4.3 | 11.3 | 0.00 | 0.02 | 0.02 | 49 | 1005.2 |
| 20260504003824 | 66 | 238 | 5.2 | 16.5 | 0.00 | 0.02 | 0.02 | 49 | 1005.2 |
| 20260504003315 | 66 | 243 | 7.0 | 16.5 | 0.00 | 0.02 | 0.02 | 49 | 1005.3 |
| 20260504003009 | 66 | 226 | 7.8 | 11.3 | 0.00 | 0.02 | 0.02 | 48 | 1005.3 |
| 20260504002823 | 66 | 261 | 7.8 | 11.3 | 0.00 | 0.02 | 0.02 | 48 | 1005.3 |
| 20260504002324 | 67 | 221 | 6.1 | 13.9 | 0.00 | 0.02 | 0.02 | 48 | 1005.3 |
| 20260504001817 | 67 | 360 | 7.0 | 13.0 | 0.00 | 0.02 | 0.02 | 47 | 1005.3 |
| 20260504001530 | 66 | 223 | 6.1 | 13.0 | 0.00 | 0.02 | 0.02 | 47 | 1005.4 |
| 20260504001321 | 67 | 223 | 5.2 | 12.2 | 0.00 | 0.02 | 0.02 | 47 | 1005.3 |
| 20260504000831 | 67 | 232 | 6.1 | 14.8 | 0.00 | 0.02 | 0.02 | 47 | 1005.3 |
| 20260504000318 | 67 | 234 | 6.1 | 14.8 | 0.00 | 0.02 | 0.02 | 46 | 1005.2 |
| 20260504000034 | 67 | 223 | 6.1 | 12.2 | 0.00 | 0.02 | 0.02 | 46 | 1005.2 |
| 20260503235820 | 67 | 241 | 7.0 | 14.8 | 0.00 | 0.02 | 0.02 | 46 | 1005.2 |
| 20260503235328 | 68 | 234 | 7.0 | 14.8 | 0.00 | 0.02 | 0.02 | 46 | 1005.2 |
| 20260503234830 | 68 | 360 | 6.1 | 13.9 | 0.00 | 0.02 | 0.02 | 45 | 1005.2 |
| 20260503234551 | 67 | 201 | 6.1 | 16.5 | 0.00 | 0.02 | 0.02 | 45 | 1005.2 |
| 20260503234333 | 68 | 250 | 6.1 | 16.5 | 0.00 | 0.02 | 0.02 | 45 | 1005.3 |
| 20260503233843 | 68 | 360 | 8.7 | 16.5 | 0.00 | 0.02 | 0.02 | 45 | 1005.3 |
| 20260503233347 | 68 | 194 | 4.3 | 11.3 | 0.00 | 0.02 | 0.02 | 45 | 1005.2 |
| 20260503233055 | 68 | 218 | 5.2 | 11.3 | 0.00 | 0.02 | 0.02 | 44 | 1005.1 |
| 20260503232851 | 68 | 196 | 6.1 | 14.8 | 0.00 | 0.02 | 0.02 | 44 | 1005.1 |
| 20260503232338 | 68 | 230 | 3.5 | 17.4 | 0.00 | 0.02 | 0.02 | 44 | 1005.1 |
| 20260503231843 | 68 | 164 | 9.6 | 17.4 | 0.00 | 0.02 | 0.02 | 44 | 1005.2 |
| 20260503231528 | 68 | 203 | 9.6 | 19.1 | 0.00 | 0.02 | 0.02 | 43 | 1005.2 |
| 20260503231335 | 68 | 188 | 7.8 | 14.8 | 0.00 | 0.02 | 0.02 | 44 | 1005.2 |
| 20260503230850 | 68 | 178 | 7.0 | 14.8 | 0.00 | 0.02 | 0.02 | 44 | 1005.2 |
| 20260503230317 | 68 | 233 | 6.1 | 15.6 | 0.00 | 0.02 | 0.02 | 44 | 1005.3 |
| 20260503230026 | 68 | 225 | 7.0 | 15.6 | 0.00 | 0.02 | 0.02 | 44 | 1005.5 |
| 20260503225847 | 68 | 220 | 8.7 | 15.6 | 0.00 | 0.02 | 0.02 | 43 | 1005.3 |
| 20260503225333 | 68 | 360 | 8.7 | 13.9 | 0.00 | 0.02 | 0.02 | 44 | 1005.4 |
| 20260503224817 | 68 | 194 | 6.1 | 13.9 | 0.00 | 0.02 | 0.02 | 44 | 1005.5 |
| 20260503224518 | 67 | 208 | 7.0 | 17.4 | 0.00 | 0.02 | 0.02 | 43 | 1005.6 |
| 20260503224324 | 68 | 203 | 7.8 | 17.4 | 0.00 | 0.02 | 0.02 | 43 | 1005.6 |
| 20260503223836 | 68 | 199 | 10.4 | 17.4 | 0.00 | 0.02 | 0.02 | 43 | 1005.6 |
| 20260503223343 | 68 | 205 | 7.0 | 15.6 | 0.00 | 0.02 | 0.02 | 43 | 1005.6 |
| 20260503223012 | 67 | 198 | 7.8 | 18.2 | 0.00 | 0.02 | 0.02 | 43 | 1005.7 |
| 20260503222834 | 67 | 277 | 7.8 | 18.2 | 0.00 | 0.02 | 0.02 | 43 | 1005.6 |
| 20260503222322 | 67 | 229 | 7.0 | 13.9 | 0.00 | 0.02 | 0.02 | 44 | 1005.7 |
| 20260503221813 | 67 | 208 | 7.8 | 15.6 | 0.00 | 0.02 | 0.02 | 43 | 1005.8 |
| 20260503221531 | 67 | 360 | 7.8 | 15.6 | 0.00 | 0.02 | 0.02 | 43 | 1005.7 |
| 20260503221322 | 67 | 237 | 9.6 | 15.6 | 0.00 | 0.02 | 0.02 | 44 | 1005.8 |
| 20260503220831 | 67 | 221 | 7.8 | 19.1 | 0.00 | 0.02 | 0.02 | 45 | 1005.9 |
| 20260503220318 | 67 | 203 | 9.6 | 15.6 | 0.00 | 0.02 | 0.02 | 44 | 1005.6 |
| 20260503220047 | 66 | 217 | 6.1 | 14.8 | 0.00 | 0.02 | 0.02 | 45 | 1005.4 |
| 20260503215820 | 66 | 176 | 8.7 | 18.2 | 0.00 | 0.02 | 0.02 | 44 | 1005.3 |
| 20260503215326 | 66 | 184 | 9.6 | 18.2 | 0.00 | 0.02 | 0.02 | 45 | 1005.0 |
| 20260503214826 | 65 | 360 | 11.3 | 16.5 | 0.00 | 0.02 | 0.02 | 45 | 1004.7 |
| 20260503214557 | 65 | 188 | 7.0 | 16.5 | 0.00 | 0.02 | 0.02 | 45 | 1004.8 |
| 20260503214321 | 65 | 360 | 8.7 | 19.1 | 0.00 | 0.02 | 0.02 | 45 | 1005.5 |
| 20260503213855 | 65 | 166 | 8.7 | 19.1 | 0.00 | 0.02 | 0.02 | 45 | 1006.1 |
| 20260503213327 | 66 | 228 | 7.8 | 17.4 | 0.00 | 0.02 | 0.02 | 44 | 1006.3 |
| 20260503213052 | 65 | 194 | 7.8 | 17.4 | 0.00 | 0.02 | 0.02 | 44 | 1005.5 |
| 20260503212818 | 66 | 202 | 10.4 | 17.4 | 0.00 | 0.02 | 0.02 | 44 | 1005.1 |
| 20260503212327 | 65 | 224 | 8.7 | 19.1 | 0.00 | 0.02 | 0.02 | 44 | 1005.0 |
| 20260503211816 | 65 | 190 | 7.8 | 20.0 | 0.00 | 0.02 | 0.02 | 43 | 1005.8 |
| 20260503211516 | 65 | 227 | 10.4 | 20.0 | 0.00 | 0.02 | 0.02 | 43 | 1006.8 |
| 20260503211348 | 65 | 208 | 11.3 | 20.0 | 0.00 | 0.02 | 0.02 | 43 | 1006.6 |
| 20260503210830 | 65 | 184 | 6.1 | 23.5 | 0.00 | 0.02 | 0.02 | 44 | 1006.7 |
| 20260503210320 | 65 | 246 | 13.0 | 23.5 | 0.00 | 0.02 | 0.02 | 43 | 1006.8 |
| 20260503210003 | 64 | 360 | 11.3 | 20.0 | 0.00 | 0.02 | 0.02 | 43 | 1007.0 |
| 20260503205833 | 64 | 167 | 7.8 | 22.6 | 0.00 | 0.02 | 0.02 | 44 | 1006.9 |
| 20260503205321 | 64 | 204 | 10.4 | 22.6 | 0.00 | 0.02 | 0.02 | 43 | 1007.0 |
| 20260503204822 | 64 | 175 | 11.3 | 24.3 | 0.00 | 0.02 | 0.02 | 43 | 1007.1 |
| 20260503204524 | 63 | 200 | 12.2 | 24.3 | 0.00 | 0.02 | 0.02 | 43 | 1007.2 |
| 20260503204326 | 63 | 196 | 13.9 | 24.3 | 0.00 | 0.02 | 0.02 | 43 | 1007.3 |
| 20260503203833 | 63 | 206 | 11.3 | 21.7 | 0.00 | 0.02 | 0.02 | 43 | 1007.4 |
| 20260503203330 | 63 | 193 | 12.2 | 22.6 | 0.00 | 0.02 | 0.02 | 43 | 1007.5 |
| 20260503203027 | 63 | 181 | 12.2 | 22.6 | 0.00 | 0.02 | 0.02 | 43 | 1007.7 |
| 20260503202817 | 63 | 191 | 13.0 | 24.3 | 0.00 | 0.02 | 0.02 | 43 | 1007.6 |
| 20260503202354 | 63 | 206 | 11.3 | 24.3 | 0.00 | 0.02 | 0.02 | 43 | 1007.6 |
| 20260503201826 | 63 | 226 | 7.8 | 20.9 | 0.00 | 0.02 | 0.02 | 43 | 1007.7 |
| 20260503201543 | 63 | 276 | 9.6 | 20.9 | 0.00 | 0.02 | 0.02 | 43 | 1007.8 |
| 20260503201319 | 63 | 259 | 10.4 | 21.7 | 0.00 | 0.02 | 0.02 | 44 | 1007.7 |
| 20260503200851 | 64 | 193 | 12.2 | 27.8 | 0.00 | 0.02 | 0.02 | 44 | 1007.8 |
| 20260503200319 | 64 | 194 | 11.3 | 27.8 | 0.00 | 0.02 | 0.02 | 44 | 1007.8 |
| 20260503200028 | 64 | 198 | 13.9 | 27.8 | 0.00 | 0.02 | 0.02 | 44 | 1007.9 |
| 20260503195833 | 64 | 200 | 10.4 | 20.9 | 0.00 | 0.02 | 0.02 | 44 | 1007.8 |
| 20260503195317 | 64 | 216 | 9.6 | 23.5 | 0.00 | 0.02 | 0.02 | 46 | 1007.8 |
| 20260503194817 | 63 | 203 | 14.8 | 23.5 | 0.00 | 0.02 | 0.02 | 45 | 1008.0 |
| 20260503194540 | 63 | 202 | 11.3 | 26.1 | 0.00 | 0.02 | 0.02 | 46 | 1008.0 |
| 20260503194323 | 63 | 202 | 11.3 | 26.1 | 0.00 | 0.02 | 0.02 | 47 | 1008.0 |
| 20260503193833 | 63 | 213 | 9.6 | 23.5 | 0.00 | 0.02 | 0.02 | 47 | 1008.1 |
| 20260503193336 | 63 | 171 | 13.0 | 24.3 | 0.00 | 0.02 | 0.02 | 49 | 1008.0 |
| 20260503193028 | 62 | 139 | 4.3 | 18.2 | 0.00 | 0.02 | 0.02 | 50 | 1008.2 |
| 20260503192832 | 62 | 236 | 10.4 | 20.0 | 0.00 | 0.02 | 0.02 | 50 | 1008.1 |
| 20260503192324 | 62 | 195 | 11.3 | 24.3 | 0.00 | 0.02 | 0.02 | 53 | 1008.2 |
| 20260503191857 | 61 | 171 | 14.8 | 24.3 | 0.00 | 0.02 | 0.02 | 54 | 1008.2 |
| 20260503191524 | 60 | 198 | 10.4 | 19.1 | 0.00 | 0.02 | 0.02 | 56 | 1008.5 |
| 20260503191337 | 60 | 194 | 7.8 | 19.1 | 0.00 | 0.02 | 0.02 | 57 | 1008.3 |
| 20260503190840 | 60 | 198 | 10.4 | 18.2 | 0.00 | 0.02 | 0.02 | 57 | 1008.5 |
| 20260503190324 | 60 | 234 | 7.8 | 20.9 | 0.00 | 0.02 | 0.02 | 57 | 1008.5 |
| 20260503190017 | 59 | 211 | 7.0 | 22.6 | 0.00 | 0.02 | 0.02 | 58 | 1008.7 |
| 20260503185835 | 60 | 203 | 10.4 | 22.6 | 0.00 | 0.02 | 0.02 | 58 | 1008.7 |
| 20260503185335 | 59 | 196 | 9.6 | 22.6 | 0.00 | 0.02 | 0.02 | 60 | 1008.7 |
| 20260503184815 | 58 | 175 | 8.7 | 18.2 | 0.00 | 0.02 | 0.02 | 63 | 1009.0 |
| 20260503184558 | 57 | 157 | 7.8 | 18.2 | 0.00 | 0.02 | 0.02 | 63 | 1009.1 |
| 20260503184317 | 57 | 211 | 11.3 | 18.2 | 0.00 | 0.02 | 0.02 | 63 | 1009.2 |
| 20260503183833 | 57 | 158 | 7.8 | 19.1 | 0.00 | 0.02 | 0.02 | 64 | 1009.2 |
| 20260503183338 | 56 | 181 | 8.7 | 19.1 | 0.00 | 0.02 | 0.02 | 65 | 1009.4 |
| 20260503183055 | 55 | 142 | 7.8 | 15.6 | 0.00 | 0.02 | 0.02 | 66 | 1009.6 |
| 20260503182821 | 55 | 163 | 7.0 | 13.9 | 0.00 | 0.02 | 0.02 | 67 | 1009.5 |
| 20260503182323 | 55 | 151 | 7.8 | 13.9 | 0.00 | 0.02 | 0.02 | 67 | 1009.5 |
| 20260503181835 | 55 | 207 | 7.0 | 18.2 | 0.00 | 0.02 | 0.02 | 69 | 1009.8 |
| 20260503181608 | 54 | 160 | 8.7 | 18.2 | 0.00 | 0.02 | 0.02 | 69 | 1009.9 |
| 20260503181327 | 54 | 169 | 5.2 | 13.9 | 0.00 | 0.02 | 0.02 | 70 | 1009.9 |
| 20260503180835 | 54 | 200 | 7.8 | 14.8 | 0.00 | 0.02 | 0.02 | 70 | 1010.0 |
| 20260503180327 | 54 | 177 | 6.1 | 14.8 | 0.00 | 0.02 | 0.02 | 72 | 1010.1 |
| 20260503180021 | 53 | 360 | 7.8 | 16.5 | 0.00 | 0.02 | 0.02 | 73 | 1010.2 |
| 20260503175829 | 53 | 180 | 8.7 | 16.5 | 0.00 | 0.02 | 0.02 | 72 | 1010.2 |
| 20260503175331 | 52 | 184 | 7.0 | 14.8 | 0.00 | 0.02 | 0.02 | 75 | 1010.4 |
| 20260503174841 | 52 | 175 | 7.0 | 14.8 | 0.00 | 0.02 | 0.02 | 77 | 1010.8 |
| 20260503174517 | 51 | 202 | 8.7 | 16.5 | 0.00 | 0.02 | 0.02 | 78 | 1011.1 |
| 20260503174345 | 51 | 197 | 7.8 | 16.5 | 0.00 | 0.02 | 0.02 | 78 | 1011.1 |
| 20260503173854 | 51 | 213 | 7.8 | 14.8 | 0.00 | 0.02 | 0.02 | 78 | 1011.3 |
| 20260503173320 | 51 | 183 | 7.0 | 15.6 | 0.00 | 0.02 | 0.02 | 79 | 1011.4 |
| 20260503173013 | 50 | 174 | 7.0 | 14.8 | 0.00 | 0.02 | 0.02 | 78 | 1011.6 |
| 20260503172825 | 51 | 177 | 9.6 | 14.8 | 0.00 | 0.02 | 0.02 | 78 | 1011.7 |
| 20260503172323 | 51 | 198 | 7.0 | 14.8 | 0.00 | 0.02 | 0.02 | 78 | 1012.0 |
| 20260503171820 | 51 | 186 | 7.0 | 12.2 | 0.00 | 0.02 | 0.02 | 78 | 1012.2 |
| 20260503171525 | 51 | 186 | 5.2 | 16.5 | 0.00 | 0.02 | 0.02 | 78 | 1012.3 |
| 20260503171324 | 51 | 198 | 6.1 | 16.5 | 0.00 | 0.02 | 0.02 | 78 | 1012.1 |
| 20260503170834 | 51 | 185 | 7.0 | 16.5 | 0.01 | 0.02 | 0.02 | 78 | 1012.3 |
| 20260503170320 | 51 | 196 | 7.8 | 16.5 | 0.01 | 0.02 | 0.02 | 78 | 1012.4 |
| 20260503150833 | 54 | 267 | 7.8 | 16.5 | 0.00 | 0.00 | 0.00 | 60 | 1013.1 |
| 20260503150345 | 54 | 233 | 7.0 | 16.5 | 0.00 | 0.00 | 0.00 | 60 | 1013.1 |
| 20260503131327 | 50 | 360 | 7.0 | 16.5 | 0.00 | 0.00 | 0.00 | 60 | 1014.0 |
| 20260503130817 | 50 | 239 | 7.8 | 13.0 | 0.00 | 0.00 | 0.00 | 61 | 1014.0 |
| 20260503130357 | 50 | 360 | 7.0 | 13.0 | 0.00 | 0.00 | 0.00 | 61 | 1014.1 |
| 20260503110342 | 47 | 248 | 5.2 | 10.4 | 0.00 | 0.00 | 0.00 | 63 | 1013.8 |
| 20260503090331 | 46 | 228 | 4.3 | 8.7 | 0.00 | 0.00 | 0.00 | 59 | 1014.2 |
| 20260503081526 | 47 | 235 | 6.1 | 14.8 | 0.00 | 0.00 | 0.00 | 55 | 1014.9 |
| 20260503081328 | 47 | 214 | 6.1 | 12.2 | 0.00 | 0.00 | 0.00 | 55 | 1014.4 |
| 20260503080819 | 47 | 238 | 4.3 | 11.3 | 0.00 | 0.00 | 0.00 | 56 | 1014.5 |
| 20260503080330 | 47 | 213 | 5.2 | 8.7 | 0.00 | 0.00 | 0.00 | 56 | 1014.4 |
| 20260503072827 | 47 | 244 | 4.3 | 8.7 | 0.00 | 0.00 | 0.00 | 56 | 1014.5 |
| 20260503072331 | 47 | 228 | 4.3 | 7.8 | 0.00 | 0.00 | 0.00 | 56 | 1014.5 |
| 20260503071842 | 47 | 232 | 4.3 | 7.0 | 0.00 | 0.00 | 0.00 | 56 | 1014.5 |
| 20260503071526 | 46 | 207 | 3.5 | 6.1 | 0.00 | 0.00 | 0.00 | 56 | 1015.0 |
| 20260503071331 | 47 | 224 | 3.5 | 7.8 | 0.00 | 0.00 | 0.00 | 55 | 1014.5 |
| 20260503070820 | 47 | 224 | 3.5 | 7.8 | 0.00 | 0.00 | 0.00 | 55 | 1014.6 |
| 20260503070324 | 47 | 204 | 4.3 | 7.8 | 0.00 | 0.00 | 0.00 | 55 | 1014.7 |
| 20260503060321 | 47 | 207 | 4.3 | 7.8 | 0.00 | 0.00 | 0.00 | 54 | 1015.2 |
| 20260503054840 | 47 | 218 | 2.6 | 6.1 | 0.00 | 0.00 | 0.00 | 53 | 1015.3 |
| 20260503054518 | 47 | 223 | 2.6 | 7.0 | 0.00 | 0.00 | 0.00 | 53 | 1015.8 |
| 20260503054353 | 48 | 207 | 3.5 | 7.0 | 0.00 | 0.00 | 0.00 | 53 | 1015.3 |
| 20260503053838 | 48 | 207 | 3.5 | 7.8 | 0.00 | 0.00 | 0.00 | 53 | 1015.4 |
| 20260503053321 | 48 | 237 | 3.5 | 7.0 | 0.00 | 0.00 | 0.00 | 53 | 1015.4 |
| 20260503053047 | 47 | 221 | 3.5 | 7.0 | 0.00 | 0.00 | 0.00 | 53 | 1015.9 |
| 20260503052821 | 48 | 224 | 3.5 | 7.0 | 0.00 | 0.00 | 0.00 | 53 | 1015.4 |
| 20260503052324 | 48 | 203 | 2.6 | 6.1 | 0.00 | 0.00 | 0.00 | 52 | 1015.4 |
| 20260503051835 | 48 | 360 | 3.5 | 7.0 | 0.00 | 0.00 | 0.00 | 52 | 1015.5 |
| 20260503051559 | 48 | 231 | 2.6 | 7.0 | 0.00 | 0.00 | 0.00 | 52 | 1016.1 |
| 20260503051323 | 48 | 233 | 3.5 | 7.0 | 0.00 | 0.00 | 0.00 | 52 | 1015.5 |
| 20260503050857 | 48 | 207 | 3.5 | 7.0 | 0.00 | 0.00 | 0.00 | 52 | 1015.6 |
| 20260503050349 | 48 | 244 | 2.6 | 7.8 | 0.00 | 0.00 | 0.00 | 52 | 1015.6 |
| 20260503050029 | 48 | 217 | 3.5 | 7.8 | 0.00 | 0.00 | 0.00 | 52 | 1016.2 |
| 20260503045830 | 48 | 223 | 3.5 | 7.0 | 0.00 | 0.00 | 0.00 | 52 | 1015.6 |
| 20260503045331 | 48 | 236 | 3.5 | 7.0 | 0.00 | 0.00 | 0.00 | 52 | 1015.6 |
| 20260503044818 | 48 | 252 | 3.5 | 7.8 | 0.00 | 0.00 | 0.00 | 52 | 1015.6 |
| 20260503044543 | 48 | 230 | 2.6 | 7.8 | 0.00 | 0.00 | 0.00 | 52 | 1016.2 |
| 20260503044351 | 48 | 230 | 3.5 | 7.8 | 0.00 | 0.00 | 0.00 | 52 | 1015.6 |
| 20260503043820 | 49 | 259 | 4.3 | 8.7 | 0.00 | 0.00 | 0.00 | 52 | 1015.7 |
| 20260503043328 | 48 | 223 | 4.3 | 7.0 | 0.00 | 0.00 | 0.00 | 52 | 1015.6 |
| 20260503043030 | 48 | 223 | 3.5 | 7.0 | 0.00 | 0.00 | 0.00 | 52 | 1016.2 |
| 20260503042839 | 48 | 222 | 3.5 | 7.0 | 0.00 | 0.00 | 0.00 | 52 | 1015.7 |
| 20260503042329 | 48 | 213 | 4.3 | 6.1 | 0.00 | 0.00 | 0.00 | 53 | 1015.7 |
| 20260503041828 | 48 | 228 | 3.5 | 7.8 | 0.00 | 0.00 | 0.00 | 53 | 1015.8 |
| 20260503041516 | 48 | 223 | 3.5 | 7.8 | 0.00 | 0.00 | 0.00 | 53 | 1016.3 |
| 20260503041333 | 48 | 213 | 3.5 | 6.1 | 0.00 | 0.00 | 0.00 | 53 | 1015.8 |
| 20260503040846 | 48 | 221 | 3.5 | 6.1 | 0.00 | 0.00 | 0.00 | 54 | 1015.8 |
| 20260503040317 | 48 | 236 | 2.6 | 6.1 | 0.00 | 0.00 | 0.00 | 54 | 1015.8 |
| 20260503040027 | 48 | 230 | 2.6 | 6.1 | 0.00 | 0.00 | 0.00 | 54 | 1016.4 |
| 20260503035854 | 48 | 219 | 2.6 | 6.1 | 0.00 | 0.00 | 0.00 | 53 | 1015.8 |
| 20260503035319 | 48 | 360 | 2.6 | 6.1 | 0.00 | 0.00 | 0.00 | 54 | 1015.9 |
| 20260503034825 | 48 | 360 | 3.5 | 5.2 | 0.00 | 0.00 | 0.00 | 53 | 1015.9 |
| 20260503034551 | 48 | 207 | 2.6 | 5.2 | 0.00 | 0.00 | 0.00 | 53 | 1016.4 |
| 20260503034316 | 48 | 213 | 2.6 | 5.2 | 0.00 | 0.00 | 0.00 | 53 | 1015.8 |
| 20260503033850 | 48 | 222 | 2.6 | 5.2 | 0.00 | 0.00 | 0.00 | 53 | 1015.8 |
| 20260503033324 | 48 | 209 | 2.6 | 4.3 | 0.00 | 0.00 | 0.00 | 53 | 1015.8 |
| 20260503033109 | 48 | 207 | 2.6 | 4.3 | 0.00 | 0.00 | 0.00 | 53 | 1016.4 |
| 20260503032826 | 48 | 215 | 2.6 | 4.3 | 0.00 | 0.00 | 0.00 | 52 | 1015.8 |
| 20260503032330 | 49 | 212 | 2.6 | 4.3 | 0.00 | 0.00 | 0.00 | 52 | 1015.9 |
| 20260503031816 | 49 | 360 | 2.6 | 4.3 | 0.00 | 0.00 | 0.00 | 52 | 1015.9 |
| 20260503031600 | 48 | 209 | 1.7 | 4.3 | 0.00 | 0.00 | 0.00 | 52 | 1016.6 |
| 20260503031326 | 49 | 211 | 2.6 | 4.3 | 0.00 | 0.00 | 0.00 | 52 | 1016.0 |
| 20260503030830 | 49 | 217 | 2.6 | 4.3 | 0.00 | 0.00 | 0.00 | 52 | 1016.0 |
| 20260503030334 | 49 | 360 | 2.6 | 4.3 | 0.00 | 0.00 | 0.00 | 51 | 1016.0 |
| 20260503030009 | 48 | 220 | 1.7 | 4.3 | 0.00 | 0.00 | 0.00 | 51 | 1016.7 |
| 20260503025842 | 49 | 223 | 2.6 | 4.3 | 0.00 | 0.00 | 0.00 | 51 | 1016.0 |
| 20260503025328 | 49 | 360 | 2.6 | 5.2 | 0.00 | 0.00 | 0.00 | 51 | 1016.0 |
| 20260503024813 | 49 | 206 | 2.6 | 5.2 | 0.00 | 0.00 | 0.00 | 51 | 1016.0 |
| 20260503024603 | 49 | 212 | 2.6 | 4.3 | 0.00 | 0.00 | 0.00 | 51 | 1016.6 |
| 20260503024321 | 49 | 214 | 2.6 | 4.3 | 0.00 | 0.00 | 0.00 | 51 | 1016.0 |
| 20260503023835 | 49 | 360 | 2.6 | 4.3 | 0.00 | 0.00 | 0.00 | 51 | 1016.0 |
| 20260503023319 | 49 | 360 | 2.6 | 4.3 | 0.00 | 0.00 | 0.00 | 51 | 1016.0 |
| 20260503023011 | 49 | 360 | 2.6 | 3.5 | 0.00 | 0.00 | 0.00 | 51 | 1016.6 |
| 20260503022821 | 49 | 218 | 2.6 | 3.5 | 0.00 | 0.00 | 0.00 | 51 | 1016.0 |
| 20260503022334 | 50 | 360 | 1.7 | 3.5 | 0.00 | 0.00 | 0.00 | 50 | 1016.0 |
| 20260503021842 | 50 | 221 | 1.7 | 5.2 | 0.00 | 0.00 | 0.00 | 50 | 1015.9 |
| 20260503021528 | 49 | 216 | 1.7 | 5.2 | 0.00 | 0.00 | 0.00 | 49 | 1016.5 |
| 20260503021347 | 50 | 360 | 2.6 | 5.2 | 0.00 | 0.00 | 0.00 | 49 | 1015.9 |
| 20260503020816 | 50 | 360 | 2.6 | 4.3 | 0.00 | 0.00 | 0.00 | 49 | 1016.0 |
| 20260503020329 | 50 | 360 | 2.6 | 4.3 | 0.00 | 0.00 | 0.00 | 48 | 1016.0 |
| 20260503020020 | 50 | 360 | 1.7 | 4.3 | 0.00 | 0.00 | 0.00 | 48 | 1016.6 |
| 20260503015813 | 50 | 208 | 2.6 | 4.3 | 0.00 | 0.00 | 0.00 | 48 | 1015.9 |